When you browse on this site, cookies collect data to enhance your experience and personalize the content and advertising you see.
Visit our Privacy Policy to learn more. By continuing to use the site, you agree to this use of cookies and data.
EN

Hourly Weather Tarhovo

Today, 27 September, Sunday

Time Temperature Precipitation Wind Pressure Humidity
00:00 +11°C° 0 mm 4 mps 756 mmHg 47%
01:00 +11°C° 0 mm 4 mps 756 mmHg 49%
02:00 +10°C° 0 mm 4 mps 756 mmHg 52%
03:00 +8°C° 0 mm 4 mps 757 mmHg 54%
04:00 +8°C° 0 mm 4 mps 757 mmHg 56%
05:00 +8°C° 0 mm 4 mps 757 mmHg 58%
06:00 +7°C° 0 mm 4 mps 757 mmHg 60%
07:00 +9°C° 0 mm 5 mps 757 mmHg 56%
08:00 +10°C° 0 mm 5 mps 757 mmHg 52%
09:00 +13°C° 0 mm 6 mps 758 mmHg 48%
10:00 +14°C° 0 mm 6 mps 758 mmHg 44%
11:00 +15°C° 0 mm 6 mps 758 mmHg 41%
12:00 +16°C° 0 mm 6 mps 758 mmHg 38%
13:00 +17°C° 0 mm 6 mps 758 mmHg 37%
14:00 +17°C° 0 mm 6 mps 757 mmHg 36%
15:00 +19°C° 0 mm 6 mps 757 mmHg 35%
16:00 +16°C° 0 mm 5 mps 757 mmHg 38%
17:00 +15°C° 0 mm 5 mps 757 mmHg 41%
18:00 +13°C° 0 mm 4 mps 757 mmHg 44%
19:00 +13°C° 0 mm 4 mps 757 mmHg 45%
20:00 +12°C° 0 mm 4 mps 758 mmHg 45%
21:00 +12°C° 0 mm 5 mps 758 mmHg 46%
22:00 +11°C° 0 mm 4 mps 758 mmHg 46%
23:00 +11°C° 0 mm 4 mps 758 mmHg 47%

Tomorrow, 28 September, Monday

Time Temperature Precipitation Wind Pressure Humidity
00:00 +10°C° 0 mm 4 mps 758 mmHg 48%
01:00 +10°C° 0 mm 4 mps 759 mmHg 49%
02:00 +8°C° 0 mm 4 mps 759 mmHg 50%
03:00 +8°C° 0 mm 4 mps 759 mmHg 51%
04:00 +7°C° 0 mm 4 mps 759 mmHg 51%
05:00 +7°C° 0 mm 4 mps 759 mmHg 52%
06:00 +7°C° 0 mm 4 mps 759 mmHg 53%
07:00 +8°C° 0 mm 4 mps 759 mmHg 49%
08:00 +10°C° 0 mm 5 mps 759 mmHg 46%
09:00 +13°C° 0 mm 5 mps 759 mmHg 42%
10:00 +14°C° 0 mm 6 mps 759 mmHg 39%
11:00 +15°C° 0 mm 6 mps 759 mmHg 36%
12:00 +17°C° 0 mm 6 mps 759 mmHg 32%
13:00 +17°C° 0 mm 6 mps 759 mmHg 33%
14:00 +19°C° 0 mm 6 mps 759 mmHg 33%
15:00 +19°C° 0 mm 5 mps 758 mmHg 33%
16:00 +16°C° 0 mm 5 mps 758 mmHg 36%
17:00 +15°C° 0 mm 4 mps 758 mmHg 40%
18:00 +14°C° 0 mm 3 mps 758 mmHg 44%
19:00 +13°C° 0 mm 3 mps 758 mmHg 44%
20:00 +13°C° 0 mm 4 mps 758 mmHg 44%
21:00 +12°C° 0 mm 4 mps 759 mmHg 44%
22:00 +12°C° 0 mm 4 mps 759 mmHg 45%
23:00 +11°C° 0 mm 4 mps 759 mmHg 46%

Day after tomorrow, 29 September, Tuesday

Time Temperature Precipitation Wind Pressure Humidity
00:00 +11°C° 0 mm 4 mps 759 mmHg 47%
01:00 +11°C° 0 mm 3 mps 759 mmHg 48%
02:00 +10°C° 0 mm 3 mps 759 mmHg 50%
03:00 +9°C° 0 mm 3 mps 759 mmHg 51%
04:00 +9°C° 0 mm 3 mps 759 mmHg 52%
05:00 +9°C° 0 mm 3 mps 759 mmHg 52%
06:00 +9°C° 0 mm 3 mps 759 mmHg 53%
07:00 +10°C° 0 mm 4 mps 759 mmHg 50%
08:00 +11°C° 0 mm 4 mps 759 mmHg 48%
09:00 +13°C° 0 mm 4 mps 759 mmHg 45%
10:00 +14°C° 0 mm 4 mps 758 mmHg 41%
11:00 +16°C° 0 mm 5 mps 758 mmHg 38%
12:00 +17°C° 0 mm 5 mps 758 mmHg 34%
13:00 +17°C° 0 mm 5 mps 758 mmHg 34%
14:00 +19°C° 0 mm 5 mps 758 mmHg 35%
15:00 +19°C° 0 mm 5 mps 757 mmHg 35%
16:00 +18°C° 0 mm 4 mps 757 mmHg 39%
17:00 +15°C° 0 mm 4 mps 757 mmHg 44%
18:00 +14°C° 0 mm 3 mps 756 mmHg 48%
19:00 +13°C° 0 mm 3 mps 756 mmHg 51%
20:00 +13°C° 0 mm 3 mps 756 mmHg 54%
21:00 +12°C° 0 mm 4 mps 756 mmHg 57%
22:00 +12°C° 0 mm 4 mps 756 mmHg 60%
23:00 +12°C° 0 mm 4 mps 756 mmHg 63%

30 September, Wednesday

Time Temperature Precipitation Wind Pressure Humidity
00:00 +11°C° 0 mm 4 mps 756 mmHg 67%
01:00 +11°C° 0 mm 4 mps 756 mmHg 67%
02:00 +11°C° 0 mm 4 mps 756 mmHg 68%
03:00 +11°C° 0 mm 4 mps 756 mmHg 69%
04:00 +10°C° 0 mm 4 mps 756 mmHg 70%
05:00 +10°C° 0 mm 4 mps 756 mmHg 71%
06:00 +10°C° 0 mm 4 mps 756 mmHg 72%
07:00 +11°C° 0 mm 4 mps 756 mmHg 67%
08:00 +13°C° 0 mm 5 mps 756 mmHg 62%
09:00 +14°C° 0 mm 5 mps 755 mmHg 57%
10:00 +15°C° 0 mm 5 mps 755 mmHg 53%
11:00 +17°C° 0 mm 6 mps 755 mmHg 48%
12:00 +19°C° 0 mm 6 mps 755 mmHg 44%
13:00 +19°C° 0 mm 6 mps 755 mmHg 43%
14:00 +19°C° 0 mm 5 mps 755 mmHg 43%
15:00 +19°C° 0 mm 5 mps 754 mmHg 42%
16:00 +17°C° 0 mm 5 mps 754 mmHg 46%
17:00 +17°C° 0 mm 4 mps 754 mmHg 50%
18:00 +15°C° 0 mm 4 mps 754 mmHg 54%
19:00 +14°C° 0 mm 4 mps 754 mmHg 56%
20:00 +14°C° 0 mm 4 mps 754 mmHg 58%
21:00 +13°C° 0 mm 4 mps 754 mmHg 59%
22:00 +13°C° 0 mm 4 mps 755 mmHg 61%
23:00 +12°C° 0 mm 4 mps 755 mmHg 62%

1 October, Thursday

Time Temperature Precipitation Wind Pressure Humidity
00:00 +12°C° 0 mm 4 mps 755 mmHg 63%
01:00 +11°C° 0 mm 4 mps 755 mmHg 63%
02:00 +11°C° 0 mm 4 mps 755 mmHg 63%
03:00 +11°C° 0 mm 4 mps 755 mmHg 64%
04:00 +10°C° 0 mm 4 mps 755 mmHg 66%
05:00 +10°C° 0 mm 4 mps 755 mmHg 68%
06:00 +10°C° 0 mm 4 mps 755 mmHg 70%
07:00 +11°C° 0 mm 4 mps 755 mmHg 65%
08:00 +13°C° 0 mm 5 mps 755 mmHg 60%
09:00 +14°C° 0 mm 5 mps 755 mmHg 55%
10:00 +16°C° 0 mm 5 mps 755 mmHg 50%
11:00 +17°C° 0 mm 5 mps 755 mmHg 44%
12:00 +20°C° 0 mm 6 mps 755 mmHg 38%
13:00 +20°C° 0 mm 5 mps 755 mmHg 37%
14:00 +20°C° 0 mm 5 mps 754 mmHg 37%
15:00 +20°C° 0 mm 5 mps 754 mmHg 36%
16:00 +19°C° 0 mm 5 mps 754 mmHg 41%
17:00 +17°C° 0 mm 4 mps 754 mmHg 45%
18:00 +15°C° 0 mm 4 mps 754 mmHg 50%
19:00 +14°C° 0 mm 4 mps 754 mmHg 53%
20:00 +14°C° 0 mm 4 mps 754 mmHg 57%
21:00 +13°C° 0 mm 4 mps 755 mmHg 60%
22:00 +13°C° 0 mm 4 mps 755 mmHg 64%
23:00 +12°C° 0 mm 4 mps 755 mmHg 68%

2 October, Friday

Time Temperature Precipitation Wind Pressure Humidity
00:00 +12°C° 0 mm 4 mps 755 mmHg 72%
01:00 +12°C° 0 mm 4 mps 755 mmHg 74%
02:00 +11°C° 0 mm 4 mps 755 mmHg 76%
03:00 +11°C° 0 mm 4 mps 755 mmHg 77%
04:00 +10°C° 0 mm 4 mps 755 mmHg 79%
05:00 +10°C° 0 mm 4 mps 755 mmHg 80%
06:00 +10°C° 0 mm 4 mps 755 mmHg 82%
07:00 +11°C° 0 mm 4 mps 755 mmHg 75%
08:00 +13°C° 0 mm 5 mps 755 mmHg 68%
09:00 +14°C° 0 mm 5 mps 755 mmHg 61%
10:00 +16°C° 0 mm 5 mps 755 mmHg 56%
11:00 +17°C° 0 mm 5 mps 755 mmHg 50%
12:00 +19°C° 0 mm 6 mps 755 mmHg 45%
13:00 +20°C° 0 mm 5 mps 755 mmHg 43%
14:00 +20°C° 0 mm 5 mps 755 mmHg 42%
15:00 +20°C° 0 mm 5 mps 755 mmHg 41%
16:00 +19°C° 0 mm 5 mps 755 mmHg 45%
17:00 +17°C° 0 mm 4 mps 755 mmHg 50%
18:00 +16°C° 0 mm 3 mps 755 mmHg 54%
19:00 +14°C° 0 mm 3 mps 755 mmHg 56%
20:00 +13°C° 0 mm 4 mps 755 mmHg 58%
21:00 +13°C° 0 mm 4 mps 755 mmHg 60%
22:00 +12°C° 0 mm 4 mps 756 mmHg 63%
23:00 +12°C° 0 mm 3 mps 756 mmHg 67%
Show more